OBJECT B, 57425

Orbit data source: Space-Track

You're viewing an Uncataloged Satellite

Recently launched and/or uncataloged satellites may have evolving metadata. Metadata may include but not limited to: Owner, Maufacturer, Bus, Motor, and Mission.

OBJECT B, 57425 is a satellite owned by Sixiang Aishu (CN) in SSO that was launched on Sun, 23 Jul 2023 UTC via a CHANG ZHENG 2D launch vehicle from the Taiyaun Space Center, China (TSC). Unknown objects in Earth's orbit typically refer to objects detected orbiting the Earth but have not yet been identified or cataloged. These objects could be anything from previously untracked satellites, spent rocket stages, debris from satellite collisions, or even natural meteoroids temporarily captured by Earth's gravity.

Loading next visibility...
Identifier
57425, 2023-104B
Orbit
SSO
Country
Flag of CNCN / PRC
Related business
None
Manufacturer
Yinhe
Mission
Operational Commercial Imaging
Bus & Motor
AS, Unknown motor
Mass
~100 kg wet, ~100 kg dry
Launch date (UTC)
2023-07-23 (2 years ago)
Launch vehicle
CHANG ZHENG 2D
Launch site
Taiyaun Space Center, China (TSC)
Object type
Unknown
Shape & HBR
Box + 2 Pan, 0.8 m
Radar Cross Section
0.363 m², Medium (>0.1 m² and < 1m²)

Expand to show TLE details & history
Last TLE update: 12 hours ago

TLE from 12 hours ago
0 OBJECT B
1 57425U 23104B   25258.93976506  .00045904  00000-0  63268-3 0  9990
2 57425  97.2976 335.1424 0005710 354.7326   5.3868 15.57078217120635
Epoch: 2025-09-15T22:33Z
TLE epoch observation values (Epoch: 2025-09-15T22:33:15.701Z)
Latitude
-0.00004°
Longitude
1.68977°
Altitude
395.41 km
Speed
7.675 km/s
True Right ascension
22h 20m 34s
True Declination
0° 00' 00"
Sunlit
Object was in full shadow at epoch
Visualization orbit readout
Latitude
Unknown
Longitude
Unknown
Altitude
Unknown
Speed
Unknown
Apparent Right ascension
Unknown
Apparent Declination
Unknown
Sunlit
N/A
Visualization observer readout
Local Sidereal Time
02:57:46
Azimuth
Unknown
Elevation
Unknown
Doppler factor
Unknown
Orbital elements
Apogee altitude
396.896 km
Perigee altitude
389.164 km
Semi-major axis
6,771.167 km
Eccentricity
0.00057
Inclination
97.2976°
RAAN
335.1424°
Arg. of periapsis
354.7326°
True anomaly
5.39295°
Mean anomaly
5.3868°
Eccentric anomaly
5.38987°
Mean motion
3.89536 °/min
Orbital period
92.42 mins
BSTAR
0.00063268
Loading maneuver chart data...
Computing Atmospheric mass density...
Loading historical data...
Loading historical data...
Loading historical data...
Loading historical data...
Loading historical data...
Loading historical data...
Loading historical data...
Other satellites on launch #104 in the year 2023 (2023-07-23 UTC)

Documentation

Showing up to 5 results
|